WB1DX Weather Reports


time (UTC)temp
C
wind
direction
speed
KPH
gust
KPH
rain 1hr
cm
rain 24hr
cm
rain mn
cm
humidity
%
barometer
mb
20260502163903 11 210 3.2 3.2 0.00 0.00 0.10 75 987.0
20260502163402 11 215 1.6 3.2 0.00 0.00 0.10 77 987.0
20260502162902 11 224 0.0 1.6 0.00 0.00 0.10 76 987.0
20260502162403 11 225 0.0 3.2 0.00 0.00 0.10 76 987.0
20260502161902 11 233 1.6 3.2 0.00 0.00 0.10 75 987.0
20260502161403 11 238 0.0 1.6 0.00 0.00 0.10 78 987.0
20260502160902 11 252 1.6 3.2 0.00 0.00 0.10 75 987.0
20260502160402 11 262 3.2 6.4 0.00 0.00 0.10 74 987.0
20260502151914 10 111 0.0 1.6 0.00 0.00 0.10 77 988.0
20260502151402 10 111 0.0 1.6 0.00 0.00 0.10 76 988.0
20260502150903 10 111 0.0 1.6 0.00 0.00 0.10 76 988.0
20260502150402 10 110 0.0 1.6 0.00 0.00 0.10 77 987.0
20260502130403 9 147 1.6 1.6 0.00 0.00 0.10 85 988.0
20260502123403 7 132 0.0 0.0 0.00 0.00 0.10 91 988.0
20260502122903 7 132 0.0 0.0 0.00 0.00 0.10 91 988.0
20260502122404 7 131 0.0 0.0 0.00 0.00 0.10 91 988.0
20260502121902 7 131 0.0 0.0 0.00 0.00 0.10 91 988.0
20260502121402 7 132 0.0 0.0 0.00 0.00 0.10 91 988.0
20260502120902 7 132 0.0 0.0 0.00 0.00 0.10 91 988.0
20260502120403 7 131 0.0 1.6 0.00 0.00 0.10 93 988.0
20260502115902 7 132 0.0 0.0 0.00 0.00 0.10 93 988.0
20260502115403 7 132 0.0 1.6 0.00 0.00 0.10 93 988.0
20260502114902 7 132 0.0 0.0 0.13 0.00 0.10 93 988.0
20260502114403 7 132 0.0 0.0 0.13 0.00 0.10 93 988.0
20260502113905 7 132 0.0 0.0 0.00 0.00 0.08 93 988.0
20260502113402 7 132 0.0 0.0 0.00 0.00 0.08 93 988.0
20260502112902 7 128 0.0 0.0 0.00 0.00 0.08 93 988.0
20260502112403 7 128 0.0 0.0 0.00 0.00 0.08 93 988.0
20260502111903 7 128 0.0 1.6 0.00 0.00 0.08 93 988.0
20260502111403 7 129 0.0 1.6 0.00 0.00 0.08 93 988.0
20260502110904 7 129 0.0 0.0 0.18 0.00 0.08 94 988.0
20260502110402 7 129 0.0 1.6 0.18 0.00 0.08 94 988.0
20260502105902 7 130 0.0 0.0 0.00 0.00 0.05 93 988.0
20260502105402 7 130 0.0 0.0 0.13 0.00 0.05 93 988.0
20260502104902 7 130 0.0 0.0 0.13 0.00 0.05 93 988.0
20260502104403 7 130 0.0 0.0 0.00 0.00 0.03 93 988.0
20260502103902 7 130 0.0 0.0 0.00 0.00 0.03 93 988.0
20260502103402 7 130 0.0 1.6 0.00 0.00 0.03 93 988.0
20260502102902 7 130 0.0 0.0 0.00 0.00 0.03 93 988.0
20260502102402 7 130 0.0 1.6 0.18 0.00 0.03 93 987.0
20260502101902 7 130 1.6 1.6 0.18 0.00 0.03 93 987.0
20260502101402 7 130 1.6 1.6 0.00 0.00 0.00 93 988.0
20260502100903 7 129 0.0 0.0 0.00 0.00 0.00 93 987.0
20260502100402 7 130 0.0 0.0 0.00 0.00 0.00 93 987.0
20260502091402 7 129 0.0 1.6 0.00 0.00 0.00 92 987.0
20260502090902 7 129 0.0 0.0 0.00 0.00 0.00 92 987.0
20260502090403 7 129 0.0 0.0 0.00 0.00 0.00 92 987.0
20260502071403 7 162 0.0 1.6 0.00 0.00 0.00 80 987.0
20260502070902 8 162 0.0 1.6 0.00 0.00 0.00 81 987.0
20260502070402 8 162 1.6 1.6 0.00 0.00 0.00 79 987.0
20260502065902 8 162 1.6 1.6 0.00 0.00 0.00 78 987.0
20260502065402 8 162 1.6 1.6 0.00 0.00 0.00 77 987.0
20260502064902 8 162 1.6 1.6 0.00 0.00 0.00 77 987.0
20260502064402 8 162 0.0 0.0 0.00 0.00 0.00 74 987.0
20260502063902 8 162 0.0 0.0 0.00 0.00 0.00 72 988.0
20260502063402 8 162 0.0 0.0 0.00 0.00 0.00 73 988.0
20260502062902 8 162 0.0 0.0 0.00 0.00 0.00 73 987.0
20260502062402 8 162 0.0 1.6 0.00 0.00 0.00 72 988.0
20260502061902 8 162 1.6 1.6 0.00 0.00 0.00 73 988.0
20260502061402 8 161 1.6 1.6 0.00 0.00 0.00 74 988.0
20260502060902 8 160 0.0 0.0 0.00 0.00 0.00 73 987.0
20260502060403 8 160 0.0 0.0 0.00 0.00 0.00 73 987.0
20260502055903 8 161 0.0 1.6 0.00 0.00 0.00 72 988.0
20260502055402 8 161 0.0 1.6 0.00 0.00 0.00 70 988.0
20260502054908 8 161 0.0 0.0 0.00 0.00 0.00 71 988.0
20260502054403 8 161 0.0 0.0 0.00 0.00 0.00 72 987.0
20260502053902 8 161 0.0 0.0 0.00 0.00 0.00 71 988.0
20260502053404 8 161 0.0 0.0 0.00 0.00 0.00 72 988.0
20260502052903 8 161 0.0 0.0 0.00 0.00 0.00 70 988.0
20260502052402 8 161 0.0 0.0 0.00 0.00 0.00 70 988.0
20260502051903 8 161 0.0 0.0 0.00 0.00 0.00 71 988.0
20260502051402 8 161 0.0 0.0 0.00 0.00 0.00 71 988.0
20260502050902 8 161 0.0 0.0 0.00 0.00 0.00 71 988.0
20260502050402 8 161 0.0 0.0 0.00 0.00 0.00 71 987.0
20260502045902 8 161 0.0 0.0 0.00 0.00 0.00 71 988.0
20260502045403 8 161 0.0 0.0 0.00 0.00 0.00 69 988.0
20260502044902 8 161 0.0 0.0 0.00 0.00 0.00 70 987.0
20260502044402 8 161 0.0 0.0 0.00 0.00 0.00 70 988.0
20260502043902 8 161 0.0 0.0 0.00 0.00 0.00 69 988.0
20260502043402 8 161 0.0 0.0 0.00 0.00 0.00 68 988.0
20260502042902 8 161 0.0 0.0 0.00 0.00 0.00 68 988.0
20260502042402 8 161 0.0 0.0 0.00 0.00 0.00 68 988.0
20260502041902 8 161 0.0 0.0 0.00 0.00 0.00 67 988.0
20260502041402 8 161 0.0 0.0 0.00 0.00 0.00 67 988.0
20260502040902 8 161 0.0 0.0 0.00 0.00 0.00 68 988.0
20260502040403 8 161 0.0 0.0 0.00 0.00 0.00 68 988.0
20260502035902 8 161 0.0 0.0 0.00 0.00 0.00 67 987.0
20260502035402 8 161 0.0 0.0 0.00 0.00 0.00 68 988.0
20260502034902 8 161 0.0 0.0 0.00 0.00 0.00 68 988.0
20260502034402 8 161 0.0 0.0 0.00 0.00 0.00 68 988.0
20260502033903 8 161 0.0 0.0 0.00 0.00 0.00 65 988.0
20260502033402 8 161 0.0 0.0 0.00 0.00 0.00 68 988.0
20260502032902 8 161 0.0 0.0 0.00 0.00 0.00 65 988.0
20260502032402 8 161 1.6 1.6 0.00 0.00 0.00 66 988.0
20260502031903 8 161 0.0 0.0 0.00 0.00 0.00 63 988.0
20260502031403 8 161 1.6 1.6 0.00 0.00 0.00 64 988.0
20260502030902 8 161 0.0 1.6 0.00 0.00 0.00 62 988.0
20260502030402 8 161 1.6 1.6 0.00 0.00 0.00 60 988.0
20260502025903 8 161 0.0 0.0 0.00 0.00 0.00 59 988.0
20260502025402 8 161 0.0 0.0 0.00 0.00 0.00 61 988.0
20260502024903 8 161 0.0 0.0 0.00 0.00 0.00 62 988.0
20260502024405 8 161 0.0 0.0 0.00 0.00 0.00 62 988.0
20260502023903 8 161 0.0 1.6 0.00 0.00 0.00 61 988.0
20260502023403 8 161 0.0 0.0 0.00 0.00 0.00 61 988.0
20260502022903 8 161 0.0 0.0 0.00 0.00 0.00 64 988.0
20260502022402 8 161 1.6 1.6 0.00 0.00 0.00 61 988.0
20260502021903 8 161 0.0 0.0 0.00 0.00 0.00 59 988.0
20260502021402 8 161 1.6 1.6 0.00 0.00 0.00 58 988.0
20260502020902 8 161 1.6 1.6 0.00 0.00 0.00 58 988.0
20260502020403 8 160 3.2 3.2 0.00 0.00 0.00 58 988.0
20260502015903 8 160 1.6 1.6 0.00 0.00 0.00 57 988.0
20260502015402 8 160 0.0 0.0 0.00 0.00 0.00 60 988.0
20260502014903 8 160 0.0 0.0 0.00 0.00 0.00 58 987.0
20260502014403 8 160 0.0 0.0 0.00 0.00 0.00 55 987.0
20260502013903 8 160 1.6 0.0 0.00 0.00 0.00 55 988.0
20260502013402 8 160 0.0 0.0 0.00 0.00 0.00 56 987.0
20260502012902 8 160 0.0 0.0 0.00 0.00 0.00 56 988.0
20260502012402 8 160 0.0 0.0 0.00 0.00 0.00 57 987.0
20260502011903 8 160 0.0 0.0 0.00 0.00 0.00 56 987.0
20260502011402 8 160 0.0 0.0 0.00 0.00 0.00 55 987.0
20260502010903 8 160 0.0 0.0 0.00 0.00 0.00 54 987.0
20260502010403 8 160 0.0 0.0 0.00 0.00 0.00 57 987.0
20260502005902 8 160 0.0 0.0 0.00 0.00 0.00 57 987.0
20260502005403 8 160 0.0 0.0 0.00 0.00 0.00 52 987.0
20260502004903 9 160 0.0 0.0 0.00 0.00 0.00 51 987.0
20260502004402 9 160 0.0 0.0 0.00 0.00 0.00 53 987.0
20260502003902 9 160 0.0 0.0 0.00 0.00 0.00 50 987.0
20260502003403 10 160 0.0 0.0 0.00 0.00 0.00 50 987.0
20260502002902 10 160 1.6 1.6 0.00 0.00 0.00 54 987.0
20260502002402 10 160 0.0 0.0 0.00 0.00 0.00 50 987.0
20260502001902 10 160 1.6 1.6 0.00 0.00 0.00 52 987.0
20260502001402 10 160 0.0 1.6 0.00 0.00 0.00 48 986.0
20260502000902 10 160 1.6 1.6 0.00 0.00 0.00 48 987.0
20260502000402 10 160 1.6 1.6 0.00 0.00 0.00 49 987.0
20260501235902 10 160 1.6 1.6 0.00 0.00 0.00 48 986.0
20260501235402 11 159 1.6 1.6 0.00 0.00 0.00 48 986.0
20260501234902 11 158 0.0 1.6 0.00 0.00 0.00 49 986.0
20260501234403 11 158 1.6 1.6 0.00 0.00 0.00 47 986.0
20260501233903 11 158 1.6 1.6 0.00 0.00 0.00 44 986.0
20260501233403 11 158 1.6 1.6 0.00 0.00 0.00 45 986.0
20260501232902 12 158 0.0 1.6 0.00 0.00 0.00 37 986.0
20260501232402 12 158 1.6 3.2 0.00 0.00 0.00 40 986.0
20260501231902 12 127 1.6 3.2 0.00 0.00 0.00 35 986.0
20260501231403 13 124 0.0 0.0 0.00 0.00 0.00 35 986.0
20260501230902 13 125 1.6 1.6 0.00 0.00 0.00 37 986.0
20260501230403 13 117 0.0 3.2 0.00 0.00 0.00 35 986.0
20260501225902 13 117 1.6 1.6 0.00 0.00 0.00 35 986.0
20260501225402 14 117 0.0 1.6 0.00 0.00 0.00 30 986.0
20260501224902 13 99 1.6 3.2 0.00 0.00 0.00 31 986.0
20260501224402 14 76 0.0 1.6 0.00 0.00 0.00 31 986.0
20260501223903 14 69 3.2 4.8 0.00 0.00 0.00 30 986.0
20260501223402 14 74 1.6 1.6 0.00 0.00 0.00 31 986.0
20260501222902 14 131 1.6 1.6 0.00 0.00 0.00 29 985.0
20260501222403 14 158 4.8 6.4 0.00 0.00 0.00 31 986.0
20260501221902 15 157 1.6 1.6 0.00 0.00 0.00 33 985.0
20260501221404 15 97 0.0 3.2 0.00 0.00 0.00 28 986.0
20260501220903 15 72 0.0 3.2 0.00 0.00 0.00 29 986.0
20260501220403 15 141 0.0 1.6 0.00 0.00 0.00 31 986.0
20260501215903 15 163 4.8 6.4 0.00 0.00 0.00 30 985.0
20260501215403 15 120 1.6 3.2 0.00 0.00 0.00 28 985.0
20260501214902 15 136 3.2 3.2 0.00 0.00 0.00 29 985.0
20260501214402 15 159 3.2 4.8 0.00 0.00 0.00 28 986.0
20260501213903 15 150 4.8 6.4 0.00 0.00 0.00 29 985.0
20260501213402 15 59 3.2 3.2 0.00 0.00 0.00 30 985.0
20260501212903 15 133 1.6 1.6 0.00 0.00 0.00 30 985.0
20260501212402 15 77 1.6 11.3 0.00 0.00 0.00 28 985.0
20260501211902 15 241 6.4 6.4 0.00 0.00 0.00 28 985.0
20260501211403 15 234 1.6 3.2 0.00 0.00 0.00 29 985.0
20260501210903 15 142 0.0 3.2 0.00 0.00 0.00 28 985.0
20260501210405 15 251 4.8 12.9 0.00 0.00 0.00 28 985.0
20260501205902 15 33 6.4 9.7 0.00 0.00 0.00 29 985.0
20260501205403 16 163 1.6 1.6 0.00 0.00 0.00 32 985.0
20260501204902 15 153 1.6 6.4 0.00 0.00 0.00 30 985.0
20260501204402 16 304 3.2 6.4 0.00 0.00 0.00 29 985.0
20260501203902 15 146 1.6 4.8 0.00 0.00 0.00 28 985.0
20260501203404 16 148 3.2 4.8 0.00 0.00 0.00 27 985.0
20260501202903 15 149 1.6 3.2 0.00 0.00 0.00 31 985.0
20260501202402 15 155 3.2 9.7 0.00 0.00 0.00 32 985.0
20260501201902 15 266 6.4 6.4 0.00 0.00 0.00 28 985.0
20260501201402 15 304 3.2 9.7 0.00 0.00 0.00 29 985.0
20260501200903 15 95 0.0 6.4 0.00 0.00 0.00 28 985.0
20260501200402 15 83 0.0 4.8 0.00 0.00 0.00 28 985.0
20260501195902 15 85 3.2 6.4 0.00 0.00 0.00 27 985.0
20260501195402 15 65 3.2 9.7 0.00 0.00 0.00 28 985.0
20260501194902 15 55 4.8 4.8 0.00 0.00 0.00 31 985.0
20260501194403 15 104 3.2 6.4 0.00 0.00 0.00 28 985.0
20260501193902 16 103 1.6 12.9 0.00 0.00 0.00 28 985.0
20260501193402 16 264 3.2 4.8 0.00 0.00 0.00 27 985.0
20260501192902 16 78 1.6 3.2 0.00 0.00 0.00 28 985.0
20260501192403 15 161 0.0 6.4 0.00 0.00 0.00 29 985.0
20260501191904 15 35 3.2 14.5 0.00 0.00 0.00 30 985.0
20260501191405 16 15 4.8 9.7 0.00 0.00 0.00 28 985.0
20260501190903 15 39 3.2 9.7 0.00 0.00 0.00 32 985.0
20260501190402 15 115 6.4 6.4 0.00 0.00 0.00 31 985.0
20260501185902 15 69 3.2 6.4 0.00 0.00 0.00 32 985.0
20260501185403 15 166 3.2 9.7 0.00 0.00 0.00 29 986.0
20260501184902 16 170 11.3 12.9 0.00 0.00 0.00 29 985.0
20260501184402 15 109 1.6 6.4 0.00 0.00 0.00 32 986.0
20260501183905 15 64 1.6 4.8 0.00 0.00 0.00 32 985.0
20260501183403 15 48 3.2 4.8 0.00 0.00 0.00 33 986.0
20260501182503 15 37 3.2 6.4 0.00 0.00 0.00 33 986.0
20260501181902 15 92 0.0 3.2 0.00 0.00 0.00 30 986.0
20260501181403 15 185 6.4 9.7 0.00 0.00 0.00 31 986.0
20260501180903 15 155 9.7 12.9 0.00 0.00 0.00 33 986.0
20260501180402 15 123 3.2 6.4 0.00 0.00 0.00 33 986.0
20260501175905 14 229 1.6 4.8 0.00 0.00 0.00 35 986.0
20260501175402 15 71 6.4 11.3 0.00 0.00 0.00 31 986.0
20260501174902 14 217 3.2 4.8 0.00 0.00 0.00 33 986.0
20260501174403 14 136 4.8 4.8 0.00 0.00 0.00 33 986.0
20260501173902 13 116 3.2 4.8 0.00 0.00 0.00 36 986.0
20260501173402 14 44 6.4 9.7 0.00 0.00 0.00 35 986.0
20260501172902 14 110 1.6 16.1 0.00 0.00 0.00 37 986.0
20260501172403 13 57 4.8 6.4 0.00 0.00 0.00 35 986.0
20260501171902 13 47 4.8 4.8 0.00 0.00 0.00 36 986.0
20260501171403 13 81 3.2 4.8 0.00 0.00 0.00 41 986.0
20260501170903 13 55 3.2 4.8 0.00 0.00 0.00 37 986.0
20260501170404 13 104 0.0 3.2 0.00 0.00 0.00 38 986.0
20260501165902 13 88 3.2 9.7 0.00 0.00 0.00 36 986.0
20260501165403 13 131 3.2 9.7 0.00 0.00 0.00 35 986.0
20260501164903 13 157 4.8 6.4 0.00 0.00 0.00 38 986.0